1513180801.06,8083,7.13,72472.8,-15.31,-19.07,-20.63,0,*5D
1513180802.3,8084,7.13,72476.3,-15.31,-19.03,-20.59,0,*57
1513180803.51,8085,7.13,72468.3,-15.29,-18.99,-20.43,0,*56
1513180804.78,8086,7.13,72462.0,-15.31,-19.07,-20.49,0,*50
1513180806.03,8087,7.13,72458.3,-15.31,-19.17,-20.59,0,*51
1513180807.27,8088,7.13,72452.3,-15.29,-19.03,-20.53,0,*58
1513180808.51,8089,7.13,72452.8,-15.31,-19.03,-20.43,0,*51
1513180809.75,8090,7.13,72462.8,-15.31,-19.03,-20.59,0,*52
1513180810.97,8091,7.13,72472.8,-15.29,-19.03,-20.59,0,*5A
1513180812.18,8092,7.13,72472.5,-15.29,-19.17,-20.69,0,*5F
1513180813.4,8093,7.13,72478.3,-15.29,-19.13,-20.73,0,*51
1513180814.65,8094,7.13,72476.8,-15.29,-19.31,-20.69,0,*5D
1513180815.93,8095,7.13,72482.5,-15.31,-19.41,-20.79,0,*53
1513180817.19,8096,7.13,72482.3,-15.31,-19.41,-20.93,0,*54
1513180818.42,8097,7.13,72480.5,-15.29,-19.37,-20.89,0,*56
1513180819.67,8098,7.13,72486.3,-15.31,-19.37,-20.89,0,*50
1513180820.93,8099,7.13,72478.8,-15.31,-19.41,-20.93,0,*5B
1513180822.2,8100,7.13,72482.0,-15.31,-19.41,-20.93,0,*5A
1513180823.46,8101,7.13,72480.3,-15.29,-19.23,-20.83,0,*57
1513180824.74,8102,7.13,72486.3,-15.35,-19.27,-20.89,0,*57
1513180826.01,8103,7.13,72486.3,-15.31,-19.41,-20.89,0,*52
1513180827.27,8104,7.13,72486.5,-15.31,-19.41,-20.93,0,*5E
1513180828.51,8105,7.13,72486.8,-15.35,-19.51,-20.93,0,*5A
1513180829.76,8106,7.13,72484.3,-15.35,-19.37,-20.89,0,*52
1513180831.01,8107,7.13,72484.8,-15.31,-19.37,-20.89,0,*57
1513180832.26,8108,7.13,72480.0,-15.37,-19.27,-20.93,0,*54
1513180833.53,8109,7.13,72478.3,-15.37,-19.23,-20.79,0,*55
1513180834.8,8110,7.13,72462.8,-15.31,-19.27,-20.73,0,*55
1513180836.07,8111,7.13,72466.3,-15.37,-19.31,-20.83,0,*5A
1513180837.31,8112,7.13,72462.0,-15.35,-19.17,-20.63,0,*51
1513180838.55,8113,7.13,72472.5,-15.37,-19.23,-20.69,0,*5F
1513180839.79,8114,7.13,72470.8,-15.35,-19.07,-20.63,0,*56
1513180841.03,8115,7.13,72464.8,-15.35,-19.17,-20.63,0,*56
1513180842.3,8116,7.13,72474.5,-15.37,-19.23,-20.83,0,*5E
1513180843.54,8117,7.13,72464.3,-15.35,-19.17,-20.63,0,*54
1513180844.79,8118,7.13,72472.0,-15.35,-19.17,-20.63,0,*5B
1513180846.08,8119,7.13,72480.5,-15.35,-19.27,-20.79,0,*52
1513180847.35,8120,7.13,72482.5,-15.35,-19.23,-20.73,0,*56
1513180848.59,8121,7.19,72484.8,-15.37,-19.13,-20.53,0,*54
1513180849.83,8122,7.13,72482.3,-15.35,-19.03,-20.63,0,*57
1513180851.07,8123,7.13,72482.3,-15.35,-19.03,-20.59,0,*5F
1513180852.33,8124,7.13,72480.3,-15.35,-19.03,-20.49,0,*59
1513180853.57,8125,7.13,72476.0,-15.35,-19.03,-20.59,0,*59
1513180854.81,8126,7.13,72474.0,-15.35,-19.07,-20.63,0,*57
1513180856.11,8127,7.13,72472.0,-15.31,-19.27,-20.79,0,*5B
1513180857.37,8128,7.13,72478.3,-15.31,-19.41,-20.93,0,*50
1513180858.64,8129,7.13,72486.3,-15.35,-19.27,-20.93,0,*55
1513180859.87,8130,7.13,72490.8,-15.37,-19.13,-20.63,0,*57
1513180861.1,8131,7.13,72482.0,-15.35,-19.03,-20.59,0,*5C
1513180862.34,8132,7.13,72474.3,-15.35,-19.07,-20.59,0,*5B
1513180863.61,8133,7.13,72466.0,-15.35,-18.93,-20.43,0,*5D
1513180864.9,8134,7.13,72456.5,-15.35,-18.93,-20.49,0,*50
1513180866.14,8135,7.13,72452.5,-15.35,-19.07,-20.59,0,*5C
1513180867.39,8136,7.13,72450.3,-15.35,-19.17,-20.63,0,*57
1513180868.63,8137,7.13,72452.5,-15.35,-19.17,-20.63,0,*56
1513180869.87,8138,7.13,72458.0,-15.31,-19.07,-20.63,0,*5C
1513180871.11,8139,7.13,72462.5,-15.35,-19.07,-20.63,0,*59
1513180872.35,8140,7.13,72462.3,-15.35,-19.07,-20.59,0,*5E
1513180873.59,8141,7.13,72454.8,-15.35,-19.03,-20.59,0,*5B
1513180874.83,8142,7.13,72464.3,-15.35,-19.03,-20.63,0,*51
1513180876.09,8143,7.13,72466.0,-15.35,-18.79,-20.35,0,*5F
1513180877.37,8144,7.13,72458.8,-15.35,-18.89,-20.19,0,*59
1513180878.65,8145,7.13,72454.5,-15.35,-18.89,-19.85,0,*57
1513180879.92,8146,7.13,72468.0,-15.31,-18.93,-19.95,0,*5A
1513180881.18,8147,7.13,72468.8,-15.31,-18.93,-19.99,0,*57
1513180882.45,8148,7.13,72472.3,-15.31,-18.93,-19.95,0,*54
1513180883.71,8149,7.13,72470.8,-15.31,-18.79,-19.81,0,*54
1513180884.94,8150,7.13,72474.3,-15.29,-18.69,-19.81,0,*54
1513180886.16,8151,7.13,72466.8,-15.29,-18.73,-19.91,0,*5F
1513180887.37,8152,7.13,72472.5,-15.29,-18.83,-19.91,0,*53
1513180888.61,8153,7.13,72468.5,-15.29,-18.93,-19.95,0,*57
1513180889.82,8154,7.13,72460.3,-15.29,-18.99,-19.99,0,*56
1513180891.04,8155,7.13,72460.8,-15.29,-19.13,-20.09,0,*57
1513180892.28,8156,7.13,72458.5,-15.29,-19.17,-20.15,0,*5D
1513180893.51,8157,7.13,72456.8,-15.27,-19.03,-20.09,0,*5A
1513180894.76,8158,7.13,72450.3,-15.27,-18.89,-19.95,0,*59
1513180895.99,8159,7.13,72446.8,-15.27,-19.03,-20.09,0,*54
1513180897.23,8160,7.13,72440.0,-15.29,-19.13,-20.15,0,*5C
1513180898.53,8161,7.13,72446.8,-15.31,-19.27,-20.49,0,*5A
1513180899.77,8162,7.13,72446.3,-15.29,-19.23,-20.29,0,*52
1513180901.02,8163,7.13,72446.0,-15.29,-19.23,-20.43,0,*5F
1513180902.26,8164,7.13,72452.0,-15.29,-19.51,-20.53,0,*5C
1513180903.48,8165,7.13,72452.8,-15.29,-19.51,-20.69,0,*54
1513180904.75,8166,7.13,72456.0,-15.25,-19.27,-20.49,0,*58
1513180906.02,8167,7.13,72452.5,-15.27,-19.31,-20.43,0,*56
1513180907.26,8168,7.13,72456.0,-15.27,-19.47,-20.59,0,*53
1513180908.5,8169,7.13,72456.3,-15.27,-19.37,-20.59,0,*55
1513180909.72,8170,7.13,72472.5,-15.29,-19.51,-20.59,0,*53
1513180910.94,8171,7.13,72466.5,-15.29,-19.51,-20.59,0,*52
1513180912.15,8172,7.13,72464.5,-15.29,-19.47,-20.59,0,*56
1513180913.4,8173,7.13,72462.8,-15.31,-19.51,-20.63,0,*50
1513180914.62,8174,7.13,72464.3,-15.29,-19.37,-20.43,0,*5C
1513180915.86,8175,7.13,72466.3,-15.29,-19.37,-20.53,0,*5C
1513180917.13,8176,7.13,72456.3,-15.29,-19.31,-20.53,0,*59
1513180918.34,8177,7.13,72452.8,-15.29,-19.03,-20.09,0,*56
1513180919.59,8178,7.13,72454.3,-15.29,-19.23,-20.39,0,*58
1513180920.83,8179,7.13,72456.3,-15.29,-19.47,-20.53,0,*57
1513180922.05,8180,7.13,72462.5,-15.29,-19.51,-20.73,0,*54
1513180923.34,8181,7.13,72460.3,-15.31,-19.57,-20.53,0,*58
1513180924.59,8182,7.13,72456.5,-15.31,-19.51,-20.63,0,*5E
1513180925.83,8183,7.13,72460.3,-15.29,-19.61,-20.69,0,*5F
1513180927.1,8184,7.13,72466.0,-15.31,-19.81,-20.79,0,*5E
1513180928.33,8185,7.13,72466.8,-15.29,-19.81,-20.93,0,*52
1513180929.56,8186,7.13,72470.5,-15.29,-19.81,-20.93,0,*51
1513180930.83,8187,7.13,72466.3,-15.31,-19.95,-21.03,0,*54
1513180932.11,8188,7.13,72466.0,-15.31,-19.85,-21.03,0,*5A
1513180933.35,8189,7.13,72474.0,-15.31,-19.95,-20.93,0,*52
1513180934.62,8190,7.13,72462.8,-15.31,-19.95,-21.03,0,*52
1513180935.88,8191,7.13,72462.3,-15.35,-19.85,-20.93,0,*5E
1513180937.12,8192,7.13,72462.5,-15.31,-19.51,-20.59,0,*56
1513180938.4,8193,7.13,72466.8,-15.31,-19.37,-20.49,0,*56
1513180939.67,8194,7.13,72472.5,-15.31,-19.27,-20.43,0,*5A
1513180940.94,8195,7.13,72478.3,-15.35,-19.41,-20.59,0,*54
1513180942.21,8196,7.13,72480.0,-15.35,-19.57,-20.73,0,*58
1513180943.47,8197,7.13,72482.5,-15.35,-19.85,-20.89,0,*53
1513180944.74,8198,7.13,72476.0,-15.31,-19.85,-20.89,0,*58
1513180946.0,8199,7.13,72476.3,-15.31,-19.85,-20.93,0,*52
1513180947.26,8200,7.13,72476.0,-15.31,-19.81,-20.89,0,*5E
1513180948.53,8201,7.13,72476.3,-15.31,-19.65,-20.89,0,*55
1513180949.77,8202,7.13,72470.5,-15.37,-19.71,-20.79,0,*5A
1513180951.04,8203,7.13,72466.8,-15.35,-19.65,-20.73,0,*56
1513180952.32,8204,7.13,72462.8,-15.35,-19.65,-20.79,0,*5B
1513180953.6,8205,7.13,72472.3,-15.35,-19.65,-20.79,0,*5A
1513180954.86,8206,7.13,72472.0,-15.37,-19.85,-20.83,0,*50
1513180956.12,8207,7.13,72478.8,-15.35,-19.71,-20.79,0,*5D
1513180957.39,8208,7.13,72466.0,-15.35,-19.57,-20.73,0,*5C
1513180958.63,8209,7.13,72468.5,-15.37,-19.57,-20.63,0,*5E
1513180959.88,8210,7.13,72462.8,-15.35,-19.51,-20.59,0,*5B
1513180961.12,8211,7.13,72462.0,-15.37,-19.57,-20.63,0,*57
1513180962.39,8212,7.13,72468.5,-15.35,-19.41,-20.59,0,*58
1513180963.65,8213,7.13,72472.3,-15.37,-19.41,-20.53,0,*51
1513180964.87,8214,7.13,72476.3,-15.37,-19.51,-20.59,0,*5D
1513180966.15,8215,7.13,72464.0,-15.35,-19.27,-20.43,0,*54
1513180967.42,8216,7.13,72456.8,-15.35,-19.37,-20.49,0,*5C
1513180968.68,8217,7.13,72464.3,-15.37,-19.41,-20.49,0,*5E
1513180969.93,8218,7.13,72466.0,-15.35,-19.51,-20.63,0,*5A
1513180971.21,8219,7.13,72468.8,-15.35,-19.65,-20.79,0,*57
1513180972.45,8220,7.13,72482.8,-15.37,-19.85,-20.93,0,*55
1513180973.7,8221,7.13,72488.3,-15.35,-19.81,-20.93,0,*52
1513180974.96,8222,7.13,72488.0,-15.35,-19.85,-20.93,0,*55
1513180976.19,8223,7.13,72490.3,-15.35,-19.95,-21.09,0,*57
1513180977.4,8224,7.13,72486.0,-15.37,-19.95,-21.13,0,*59
1513180978.67,8225,7.13,72472.8,-15.35,-19.65,-20.63,0,*53
1513180979.88,8226,7.13,72478.8,-15.37,-19.47,-20.63,0,*52
1513180981.15,8227,7.13,72472.0,-15.35,-19.41,-20.59,0,*5E
1513180982.39,8228,7.13,72472.8,-15.37,-19.57,-20.63,0,*5D
1513180983.64,8229,7.13,72488.5,-15.35,-19.37,-20.43,0,*5A
1513180984.91,8230,7.13,72492.8,-15.37,-19.31,-20.49,0,*5C
1513180986.18,8231,7.13,72492.3,-15.35,-19.23,-20.43,0,*56
1513180987.45,8232,7.13,72492.0,-15.37,-19.31,-20.53,0,*55
1513180988.72,8233,7.13,72486.5,-15.37,-19.27,-20.53,0,*53
1513180990.02,8234,7.13,72484.0,-15.35,-19.27,-20.49,0,*5D
1513180991.29,8235,7.13,72482.3,-15.37,-19.41,-20.53,0,*55
1513180992.55,8236,7.13,72480.3,-15.37,-19.61,-20.79,0,*5C
1513180993.8,8237,7.13,72482.0,-15.35,-19.71,-20.89,0,*51
1513180995.06,8238,7.13,72464.5,-15.35,-19.51,-20.79,0,*53
1513180996.32,8239,7.13,72456.3,-15.37,-19.57,-20.79,0,*56
1513180997.57,8240,7.13,72468.8,-15.35,-19.37,-20.59,0,*5E
1513180998.81,8241,7.13,72460.3,-15.35,-19.17,-20.43,0,*56
1513181000.07,8242,7.13,72458.8,-15.35,-19.41,-20.73,0,*55
1513181001.34,8243,7.13,72456.0,-15.35,-19.37,-20.49,0,*5C
1513181002.61,8244,7.13,72456.3,-15.35,-19.41,-20.63,0,*52
1513181003.85,8245,7.13,72460.8,-15.35,-19.51,-20.73,0,*53
1513181005.07,8246,7.13,72456.8,-15.37,-19.51,-20.63,0,*53
1513181006.33,8247,7.13,72462.3,-15.35,-19.51,-20.79,0,*5B
1513181007.59,8248,7.13,72462.3,-15.35,-19.57,-20.63,0,*59
1513181008.84,8249,7.13,72464.0,-15.35,-19.37,-20.43,0,*5C
1513181010.13,8250,7.13,72460.5,-15.35,-19.23,-20.35,0,*50
1513181011.39,8251,7.13,72452.0,-15.35,-19.23,-20.59,0,*5B
1513181012.66,8252,7.13,72458.3,-15.35,-19.41,-20.63,0,*55
1513181013.94,8253,7.13,72460.8,-15.35,-19.57,-20.79,0,*58
1513181015.21,8254,7.13,72460.3,-15.31,-19.57,-20.73,0,*51
1513181016.5,8255,7.13,72468.8,-15.31,-19.57,-20.79,0,*5A
1513181017.79,8256,7.13,72470.0,-15.31,-19.65,-20.79,0,*58
1513181019.05,8257,7.13,72474.0,-15.35,-19.65,-20.93,0,*59
1513181020.3,8258,7.13,72476.5,-15.31,-19.81,-21.09,0,*5A
1513181021.54,8259,7.13,72480.3,-15.35,-19.95,-21.13,0,*51
1513181022.8,8260,7.13,72482.5,-15.31,-19.95,-21.03,0,*5E
1513181024.08,8261,7.13,72482.0,-15.35,-19.81,-21.03,0,*5E
1513181025.36,8262,7.13,72484.3,-15.35,-19.85,-21.03,0,*59
1513181026.61,8263,7.13,72482.0,-15.35,-19.85,-21.13,0,*59
1513181027.82,8264,7.13,72490.3,-15.37,-20.05,-21.17,0,*5A
1513181029.08,8265,7.13,72486.8,-15.35,-19.99,-21.27,0,*55
1513181030.35,8266,7.13,72488.5,-15.37,-20.15,-21.23,0,*5E
1513181031.6,8267,7.13,72488.0,-15.37,-20.15,-21.33,0,*5E
1513181032.83,8268,7.13,72490.3,-15.37,-20.19,-21.47,0,*5E
1513181034.06,8269,7.13,72488.5,-15.37,-20.19,-21.47,0,*5F
1513181035.29,8270,7.13,72486.5,-15.35,-20.09,-21.39,0,*5D
1513181036.55,8271,7.13,72488.3,-15.37,-20.19,-21.27,0,*50
1513181037.78,8272,7.13,72488.0,-15.37,-20.19,-21.43,0,*51
1513181039.03,8273,7.13,72490.5,-15.37,-20.15,-21.33,0,*5B
1513181040.26,8274,7.13,72492.0,-15.37,-20.05,-21.33,0,*5D
1513181041.49,8275,7.13,72494.5,-15.39,-19.91,-21.13,0,*57
1513181042.75,8276,7.13,72496.5,-15.39,-19.85,-21.13,0,*51
1513181043.98,8277,7.13,72494.8,-15.39,-19.91,-21.17,0,*51
1513181045.21,8278,7.13,72496.3,-15.39,-19.91,-21.09,0,*51
1513181046.44,8279,7.13,72496.0,-15.39,-19.91,-21.09,0,*50
1513181047.65,8280,7.13,72492.8,-15.41,-19.91,-21.13,0,*52
1513181048.88,8281,7.13,72492.0,-15.39,-19.91,-21.13,0,*5C
1513181050.13,8282,7.13,72490.3,-15.39,-19.85,-21.09,0,*51
1513181051.39,8283,7.13,72480.8,-15.39,-19.85,-20.93,0,*52
1513181052.62,8284,7.13,72484.8,-15.39,-19.91,-21.09,0,*52
1513181053.86,8285,7.13,72486.8,-15.39,-19.75,-20.93,0,*5B
1513181055.1,8286,7.13,72478.8,-15.39,-19.71,-20.93,0,*5C
1513181056.33,8287,7.13,72468.3,-15.39,-19.91,-20.93,0,*53
1513181057.59,8288,7.13,72464.8,-15.39,-19.85,-20.93,0,*59
1513181058.84,8289,7.13,72454.0,-15.41,-19.65,-20.89,0,*52
1513181060.1,8290,7.13,72448.0,-15.41,-19.61,-20.89,0,*5E
1513181061.33,8291,7.13,72454.3,-15.39,-19.47,-20.69,0,*5A
1513181062.62,8292,7.13,72440.0,-15.39,-19.61,-20.83,0,*59
1513181063.91,8293,7.13,72446.3,-15.39,-19.61,-20.79,0,*5D
1513181065.16,8294,7.13,72448.5,-15.41,-19.61,-20.89,0,*5A
1513181066.4,8295,7.13,72456.0,-15.37,-19.47,-20.79,0,*51
1513181067.69,8296,7.13,72460.0,-15.39,-19.61,-20.83,0,*5D
1513181068.95,8297,7.13,72470.3,-15.39,-19.71,-20.83,0,*5D
1513181070.17,8298,7.13,72462.0,-15.37,-19.71,-20.93,0,*5D
1513181071.43,8299,7.13,72462.5,-15.39,-19.61,-20.93,0,*53
1513181072.7,8300,7.13,72464.3,-15.35,-19.57,-20.93,0,*5B
1513181073.94,8301,7.13,72466.3,-15.35,-19.71,-20.93,0,*5E
1513181075.18,8302,7.13,72466.5,-15.37,-19.75,-20.99,0,*51
1513181076.42,8303,7.13,72472.5,-15.37,-19.71,-20.99,0,*54
1513181077.63,8304,7.13,72470.5,-15.37,-19.75,-20.93,0,*5D
1513181078.86,8305,7.13,72460.5,-15.37,-19.85,-21.09,0,*51
1513181080.09,8306,7.13,72458.5,-15.37,-19.85,-21.13,0,*59
1513181081.32,8307,7.13,72456.5,-15.39,-19.91,-21.09,0,*58
1513181082.55,8308,7.13,72456.3,-15.39,-19.91,-21.09,0,*57
1513181083.76,8309,7.13,72452.0,-15.37,-19.91,-21.13,0,*53
1513181084.97,8310,7.13,72448.8,-15.37,-19.91,-21.17,0,*5F
1513181086.18,8311,7.13,72462.3,-15.37,-19.91,-21.17,0,*5E
1513181087.39,8312,7.13,72464.0,-15.37,-19.75,-21.09,0,*58
1513181088.61,8313,7.13,72470.8,-15.37,-19.85,-21.09,0,*56
1513181089.87,8314,7.13,72462.8,-15.37,-19.85,-20.99,0,*59
1513181091.12,8315,7.13,72456.5,-15.35,-19.81,-21.09,0,*56
1513181092.38,8316,7.13,72476.3,-15.39,-19.91,-21.27,0,*54
1513181093.64,8317,7.13,72480.8,-15.39,-19.91,-21.33,0,*50
1513181094.85,8318,7.13,72472.8,-15.37,-19.75,-21.13,0,*59
1513181096.06,8319,7.13,72460.0,-15.37,-19.71,-21.13,0,*5C
1513181097.29,8320,7.13,72456.5,-15.37,-19.91,-21.33,0,*5A
1513181098.53,8321,7.13,72448.0,-15.37,-19.99,-21.57,0,*51
1513181099.73,8322,7.13,72436.8,-15.37,-19.99,-21.43,0,*57
1513181100.98,8323,7.13,72432.8,-15.39,-20.05,-21.57,0,*52
1513181102.26,8324,7.13,72434.8,-15.39,-20.15,-21.57,0,*54
1513181103.48,8325,7.13,72442.5,-15.39,-20.25,-21.73,0,*50
1513181104.76,8326,7.13,72452.0,-15.35,-20.15,-21.57,0,*5A
1513181106.01,8327,7.13,72446.5,-15.39,-20.15,-21.47,0,*56
1513181107.27,8328,7.13,72454.8,-15.39,-19.99,-21.33,0,*54
1513181108.5,8329,7.13,72456.8,-15.39,-19.99,-21.43,0,*52
1513181109.76,8330,7.13,72458.8,-15.39,-19.99,-21.33,0,*5D
1513181111.02,8331,7.13,72454.0,-15.35,-19.99,-21.53,0,*56
1513181112.25,8332,7.13,72454.0,-15.37,-20.19,-21.63,0,*56
1513181113.51,8333,7.13,72458.3,-15.41,-20.19,-21.67,0,*52
1513181114.76,8334,7.13,72460.0,-15.39,-20.15,-21.63,0,*52
1513181116.01,8335,7.13,72460.8,-15.39,-20.15,-21.63,0,*53
1513181117.27,8336,7.13,72456.0,-15.39,-19.91,-21.33,0,*53
1513181118.5,8337,7.13,72450.8,-15.41,-19.85,-21.47,0,*5B
1513181119.71,8338,7.13,72454.5,-15.41,-19.95,-21.43,0,*51
1513181120.97,8339,7.13,72458.5,-15.39,-19.99,-21.33,0,*54
1513181122.2,8340,7.13,72454.5,-15.39,-20.05,-21.47,0,*56
1513181123.43,8341,7.13,72456.0,-15.41,-20.05,-21.53,0,*5D
1513181124.67,8342,7.13,72456.5,-15.39,-19.99,-21.47,0,*5B
1513181125.9,8343,7.13,72452.8,-15.41,-20.09,-21.53,0,*53
1513181127.11,8344,7.13,72460.5,-15.41,-20.09,-21.47,0,*51
1513181128.34,8345,7.13,72464.5,-15.41,-20.09,-21.53,0,*55
1513181129.58,8346,7.13,72464.3,-15.39,-20.05,-21.57,0,*51
1513181130.79,8347,7.13,72466.0,-15.41,-20.05,-21.47,0,*5E
1513181132.02,8348,7.13,72466.5,-15.39,-19.99,-21.43,0,*55
1513181133.23,8349,7.13,72468.5,-15.41,-20.09,-21.63,0,*5A
1513181134.47,8350,7.13,72476.0,-15.41,-19.95,-21.53,0,*5E
1513181135.7,8351,7.13,72472.5,-15.41,-20.05,-21.53,0,*5C
1513181136.92,8352,7.13,72464.8,-15.37,-20.19,-21.73,0,*51
1513181138.18,8353,7.13,72458.8,-15.39,-20.19,-21.63,0,*5F
1513181139.43,8354,7.13,72456.0,-15.39,-20.15,-21.63,0,*54
1513181140.65,8355,7.13,72446.5,-15.39,-20.05,-21.43,0,*56
1513181141.86,8356,7.13,72448.0,-15.41,-20.05,-21.39,0,*57
1513181143.1,8357,7.13,72438.5,-15.41,-19.91,-21.23,0,*5A
1513181144.37,8358,7.13,72434.3,-15.39,-19.61,-20.93,0,*5F
1513181145.58,8359,7.13,72458.5,-15.41,-22.63,-27.29,0,*5D
1513181146.85,8360,7.13,72446.5,-15.39,-22.57,-27.23,0,*55
1513181148.13,8361,7.13,72450.5,-15.39,-22.73,-27.61,0,*54
1513181149.38,8362,7.13,72456.5,-15.39,-22.73,-27.51,0,*54
1513181150.63,8363,7.13,72470.5,-15.39,-22.57,-27.29,0,*5C
1513181151.86,8364,7.13,72474.3,-15.35,-22.63,-27.55,0,*5B
1513181153.07,8365,7.13,72468.5,-15.37,-22.83,-27.67,0,*57
1513181154.33,8366,7.13,72468.0,-15.35,-22.67,-27.61,0,*5A
1513181155.53,8367,7.13,72460.3,-15.37,-22.87,-27.77,0,*50
1513181156.79,8368,7.13,72456.0,-15.35,-22.77,-27.71,0,*54
1513181158.05,8369,7.13,72468.3,-15.35,-22.77,-27.55,0,*53
1513181159.28,8370,7.13,72452.5,-15.35,-22.67,-27.71,0,*5C
1513181160.52,8371,7.13,72440.3,-15.31,-22.67,-27.55,0,*5F
1513181161.78,8372,7.13,72442.0,-15.35,-22.67,-27.61,0,*5F
1513181163.04,8373,7.13,72422.8,-15.31,-22.77,-27.71,0,*5A
1513181164.28,8374,7.13,72462.0,-15.31,-22.93,-27.89,0,*50
1513181165.51,8375,7.13,72440.8,-15.29,-22.73,-27.89,0,*56
1513181166.76,8376,7.13,72412.3,-15.29,-23.09,-28.05,0,*52
1513181168.02,8377,7.13,72420.0,-15.31,-23.09,-28.09,0,*56
1513181169.26,8378,7.13,72436.5,-15.29,-22.83,-28.05,0,*5F
1513181170.49,8379,7.13,72424.3,-15.29,-22.63,-27.83,0,*51
1513181171.76,8380,7.13,72436.3,-15.27,-22.73,-27.83,0,*58
1513181173.02,8381,7.13,72448.0,-15.27,-22.87,-27.99,0,*59
1513181174.28,8382,7.13,72446.0,-15.27,-22.93,-28.05,0,*55
1513181175.54,8383,7.13,72450.5,-15.27,-24.35,-29.39,0,*50
1513181176.79,8384,7.13,72436.8,-15.25,-24.21,-29.29,0,*51
1513181178.02,8385,7.13,72438.0,-15.27,-24.35,-29.61,0,*5B
1513181179.26,8386,7.13,72442.8,-15.27,-24.35,-29.57,0,*5D
1513181180.49,8387,7.13,72436.5,-15.27,-24.35,-29.61,0,*59
1513181181.76,8388,7.13,72454.5,-15.25,-24.21,-29.51,0,*52
1513181183.0,8389,7.13,72454.3,-15.25,-24.47,-29.51,0,*53
1513181184.25,8390,7.13,72454.3,-15.25,-24.47,-29.51,0,*5B
1513181185.49,8391,7.13,72444.8,-15.25,-24.51,-29.51,0,*5D
1513181186.71,8392,7.13,72424.8,-15.25,-24.61,-29.83,0,*52
1513181187.92,8393,7.13,72430.0,-15.23,-24.97,-29.83,0,*5C
1513181189.15,8394,7.13,72432.5,-15.23,-24.97,-30.05,0,*5D
1513181190.41,8395,7.13,72428.0,-15.21,-24.87,-29.83,0,*59
1513181191.67,8396,7.13,72426.8,-15.23,-24.67,-29.73,0,*59
1513181192.91,8397,7.13,72442.8,-15.21,-24.77,-29.79,0,*51
1513181194.14,8398,7.13,72448.5,-15.23,-24.67,-29.57,0,*51
1513181195.39,8399,7.13,72450.3,-15.23,-24.51,-29.73,0,*53
1513181196.65,8400,7.13,72454.8,-15.21,-24.41,-29.61,0,*54
1513181197.92,8401,7.13,72464.0,-15.23,-24.67,-29.89,0,*55
1513181199.18,8402,7.13,72448.0,-15.21,-24.87,-30.11,0,*53
1513181200.42,8403,7.13,72440.5,-15.21,-24.77,-30.11,0,*5D
1513181201.68,8404,7.13,72448.3,-15.19,-24.83,-30.01,0,*5B
1513181202.98,8405,7.13,72444.0,-15.21,-25.03,-30.17,0,*5F
1513181204.25,8406,7.13,72450.3,-15.21,-24.77,-30.01,0,*59
1513181205.48,8407,7.13,72464.5,-15.21,-24.93,-29.95,0,*57
1513181206.77,8408,7.13,72460.8,-15.21,-25.03,-30.17,0,*52
1513181208.0,8409,7.13,72456.8,-15.21,-24.93,-30.27,0,*58
1513181209.23,8410,7.13,72452.5,-15.21,-24.93,-30.27,0,*50
1513181210.46,8411,7.13,72456.8,-15.19,-24.93,-30.17,0,*59
1513181211.68,8412,7.13,72462.8,-15.19,-25.09,-30.33,0,*5E
1513181212.92,8413,7.13,72474.8,-15.19,-24.71,-30.11,0,*51
1513181214.13,8414,7.13,72470.5,-15.19,-24.61,-30.11,0,*57
1513181215.33,8415,7.13,72458.8,-15.19,-24.57,-29.79,0,*55
1513181216.54,8416,7.13,72446.0,-15.19,-24.77,-30.11,0,*52
1513181217.8,8417,7.13,72454.3,-15.17,-24.87,-30.23,0,*53
1513181219.05,8418,7.13,72452.0,-15.17,-24.97,-30.39,0,*56
1513181220.31,8419,7.13,72458.3,-15.17,-24.87,-30.11,0,*5C
1513181221.57,8420,7.13,72458.0,-15.17,-25.03,-30.27,0,*5E
1513181222.83,8421,7.13,72458.8,-15.17,-25.35,-30.61,0,*58
1513181224.08,8422,7.13,72460.0,-15.17,-25.19,-30.51,0,*56
1513181225.32,8423,7.13,72466.5,-15.17,-25.39,-30.67,0,*50
1513181226.58,8424,7.13,72474.0,-15.19,-25.45,-30.73,0,*57
1513181227.8,8425,7.13,72472.3,-15.19,-25.39,-30.67,0,*58
1513181229.05,8426,7.13,72474.3,-15.19,-25.55,-30.83,0,*5B
1513181230.29,8427,7.13,72468.5,-15.19,-25.45,-30.67,0,*51
1513181231.55,8428,7.13,72474.5,-15.17,-25.39,-30.61,0,*5D
1513181232.78,8429,7.13,72476.3,-15.19,-25.23,-30.51,0,*5A
1513181234.01,8430,7.13,72476.3,-15.19,-25.23,-30.51,0,*52
1513181235.27,8431,7.13,72478.8,-15.19,-25.45,-30.73,0,*53
1513181236.49,8432,7.13,72482.5,-15.19,-25.39,-30.67,0,*5E
1513181237.74,8433,7.13,72480.0,-15.17,-25.23,-30.51,0,*5F
1513181238.99,8434,7.13,72480.0,-15.17,-25.39,-30.67,0,*56
1513181240.23,8435,7.13,72474.5,-15.19,-25.55,-30.83,0,*59
1513181241.48,8436,7.13,72464.0,-15.19,-25.61,-30.89,0,*57
1513181242.78,8437,7.13,72464.8,-15.17,-25.55,-30.77,0,*5E
1513181244.03,8438,7.13,72458.0,-15.17,-25.65,-30.95,0,*5E
1513181245.27,8439,7.13,72478.3,-15.19,-25.75,-31.05,0,*58
1513181246.48,8440,7.13,72486.5,-15.19,-25.87,-31.17,0,*58
1513181247.72,8441,7.13,72486.5,-15.19,-25.75,-31.17,0,*54
1513181248.93,8442,7.13,72490.5,-15.19,-25.87,-31.05,0,*59
1513181250.14,8443,7.13,72496.0,-15.19,-25.87,-31.05,0,*58
1513181251.38,8444,7.13,72498.3,-15.17,-25.87,-31.17,0,*52
1513181252.59,8445,7.13,72500.5,-15.19,-25.91,-31.17,0,*5A
1513181253.83,8446,7.13,72494.5,-15.21,-25.91,-31.05,0,*51
1513181255.1,8447,7.13,72486.5,-15.21,-25.91,-31.23,0,*54
1513181256.33,8448,7.13,72482.0,-15.21,-26.07,-31.33,0,*56
1513181257.63,8449,7.13,72466.8,-15.21,-26.13,-31.39,0,*58
1513181258.92,8450,7.13,72462.0,-15.21,-26.13,-31.39,0,*50
1513181260.21,8451,7.13,72458.3,-15.21,-26.13,-31.39,0,*51
1513181261.47,8452,7.13,72454.3,-15.23,-26.17,-31.57,0,*5C
1513181262.76,8453,7.13,72446.0,-15.21,-25.75,-31.11,0,*5A
1513181264.0,8454,7.13,72440.8,-15.21,-25.91,-31.17,0,*51
1513181265.24,8455,7.13,72438.8,-15.23,-25.91,-31.11,0,*54
1513181266.5,8456,7.13,72436.8,-15.21,-25.75,-31.05,0,*5A
1513181267.74,8457,7.13,72428.5,-15.23,-25.91,-31.23,0,*57
1513181269.01,8458,7.13,72422.5,-15.21,-25.75,-31.05,0,*54
1513181270.31,8459,7.13,72424.8,-15.21,-25.71,-30.89,0,*54
1513181271.61,8460,7.13,72438.3,-15.21,-25.55,-30.73,0,*5D
1513181272.9,8461,7.13,72418.3,-15.21,-25.29,-30.55,0,*53
1513181274.16,8462,7.13,72430.0,-15.21,-25.39,-30.55,0,*51
1513181275.4,8463,7.13,72424.3,-15.21,-25.39,-30.27,0,*55
1513181276.65,8464,7.13,72430.3,-15.23,-25.49,-30.77,0,*52
1513181277.88,8465,7.13,72432.0,-15.23,-25.13,-29.73,0,*50
1513181279.16,8466,7.13,72444.3,-15.21,-25.45,-30.51,0,*5A
1513181280.45,8467,7.13,72446.3,-15.21,-25.45,-30.73,0,*5B
1513181281.76,8468,7.13,72446.5,-15.21,-25.55,-30.73,0,*55
1513181282.99,8469,7.13,72446.8,-15.19,-25.71,-31.01,0,*5D
1513181284.26,8470,7.13,72452.3,-15.19,-25.75,-30.89,0,*50
1513181285.47,8471,7.13,72458.0,-15.19,-25.91,-31.01,0,*5A
1513181286.69,8472,7.13,72456.3,-15.19,-25.91,-30.83,0,*52
1513181287.95,8473,7.13,72456.8,-15.19,-25.55,-30.51,0,*54
1513181289.18,8474,7.13,72462.8,-15.19,-25.81,-31.05,0,*5A
1513181290.42,8475,7.13,72458.8,-15.19,-25.91,-30.89,0,*5F
1513181291.69,8476,7.13,72448.5,-15.21,-26.13,-31.33,0,*5E
1513181292.96,8477,7.13,72462.8,-15.21,-26.13,-30.67,0,*5F
1513181294.16,8478,7.13,72470.5,-15.23,-25.23,-29.07,0,*5C
1513181295.43,8479,7.13,72468.3,-15.21,-25.45,-30.67,0,*51
1513181296.72,8480,7.13,72460.3,-15.21,-25.45,-30.89,0,*57
1513181297.99,8481,7.13,72464.3,-15.21,-25.61,-30.89,0,*50
1513181299.22,8482,7.13,72448.8,-15.21,-25.91,-31.33,0,*5C
1513181300.46,8483,7.13,72450.5,-15.21,-25.91,-31.17,0,*5B
1513181301.73,8484,7.13,72474.8,-15.21,-26.07,-31.39,0,*5C
1513181302.99,8485,7.13,72470.3,-15.23,-26.17,-31.57,0,*56
1513181304.25,8486,7.13,72478.8,-15.21,-26.07,-31.57,0,*56
1513181305.51,8487,7.13,72468.0,-15.23,-26.13,-31.57,0,*50
1513181306.8,8488,7.13,72476.3,-15.21,-26.13,-31.51,0,*5B
1513181308.06,8489,7.13,72460.0,-15.23,-26.13,-31.61,0,*5B